Regional Weather Roundup
Issued by NWS Midland/Odessa, TX

Home | Current Version | Previous Version | Text Only | Print | Product List | Glossary On
Versions: 1 2 3 4 5 6 7 8 9 10 11 12 13 14 15 16 17 18 19 20 21 22 23 24 25 26 27 28 29 30 31 32 33 34 35 36 37 38 39 40 41 42 43 44 45 46 47 48 49 50
000
ASUS44 KMAF 281210
RWRMAF
MIDLAND AREA WEATHER ROUNDUP
NATIONAL WEATHER SERVICE MIDLAND TX
700 AM CDT SUN MAY 28 2017

...IN SOUTHWEST TEXAS AND SOUTHEAST NEW MEXICO...

CITY           SKY/WX    TMP DP  RH WIND       PRES   REMARKS
ALPINE         MOCLDY    62  46  53 S3        30.10R
ANDREWS        FAIR      59  47  65 N15G22    30.09R
ARTESIA        MOCLDY    59  43  55 NW12      30.21R
BIG SPRING     CLEAR     63  52  67 N17G29    30.04S
CARLSBAD       MOCLDY    61  45  55 NW22      30.16R
DRYDEN           N/A     76  70  82 N6        29.87R
FORT STOCKTON  MOCLDY    71  51  49 N15       29.98R
GUAD PASS      CLOUDY    56  43  61 NE47G54   30.13R
HOBBS          CLEAR     57  45  62 N16G23    30.14R
MARFA          PTCLDY    57  33  40 N5        30.08R
MIDLAND AIRPK  CLEAR     65  52  63 NE18G26   30.03R
MIDLAND INTL   CLEAR     65  52  62 NE24G35   30.02R
ODESSA         CLEAR     63  50  62 NE20G26   30.03R
PECOS          CLEAR     65  49  54 N16G26    30.05R
PRESIDIO       FAIR      79  34  19 N7        29.92S
SEMINOLE       CLEAR     58  47  65 N10G16    30.13R
SNYDER         CLEAR     61  53  74 N14G21    30.05R
WINK           PTCLDY    63  48  58 N22G31    30.02R
$$
...OTHER STATIONS IN TEXAS...

CITY           SKY/WX    TMP DP  RH WIND       PRES   REMARKS
ABILENE        PTCLDY    68  61  78 N16       29.98R
AMARILLO       CLEAR     50  45  83 N8        30.18R
AUSTIN         MOCLDY    73  71  93 S3        29.85S
BROWNSVILLE    CLOUDY    82  78  88 S10       29.81S
CORPUS CHRISTI MOCLDY    78  77  96 S8        29.80R
DALLAS FTW     CLOUDY    74  68  81 NE7       29.88R
DEL RIO        CLOUDY    76  73  91 E8        29.81R
EL PASO        MOCLDY    65  27  23 NW8       30.08R
HOUSTON INT    MOCLDY    80  75  84 S8        29.87R
LUBBOCK        PTCLDY    56  45  66 N14G22    30.12R
SAN ANGELO     CLEAR     72  58  61 NE21G26   29.95R
SAN ANTONIO    CLOUDY    75  72  90 NE3       29.87R
WACO           MOCLDY    73  72  96 SE5       29.87R
WICHITA FALLS  NOT AVBL
$$
...OTHER LOCATIONS IN NEW MEXICO...

CITY           SKY/WX    TMP DP  RH WIND       PRES   REMARKS
ALAMOGORDO     PTCLDY    55  10  16 SE5       30.09R
ALBUQUERQUE    PTCLDY    56  42  59 E21G30    30.20R
CANNON AFB     CLEAR     51  42  71 N14       30.21R
CLOVIS         CLEAR     50  37  62 N14       30.20R
HOLLOMAN AFB   PTCLDY    52  10  18 E9        30.11R
ROSWELL        MOCLDY    57  40  52 N7        30.21R
RUIDOSO        CLOUDY    45  37  76 S7        30.34R
SANTA FE       CLEAR     42  38  85 CALM      30.28R
TRUTH OR CONSE LGT RAIN  59  41  51 N17G29    30.12R
TUCUMCARI      CLEAR     48  40  73 N7        30.20R
$$



USA.gov is the U.S. government's official web portal to all federal, state and local government web resources and services.